sat.trackr.live / text

‹ back to catalog

NOAA 21 (JPSS-2)

NORAD 54234 · 2022-150A

PAYLOAD ACTIVE UNKNOWN

§ Identity

Operator
Country
US
Launch date
2022-11-10
Launch site
AFWTR
Launch vehicle
Mass (kg)
RCS (m²)

Purposes: earth_obs

External: N2YO · Heavens-Above · Gunter

§ Orbital elements

Epoch: 2026-09-20T02:50:11.148576Z

Period
101.44 min
Inclination
98.7105°
Eccentricity
0.0000818
Mean motion
14.19549897 rev/d
Perigee alt
826.3 km
Apogee alt
827.5 km
Semi-major
7,205.0 km
B*
2.7425e-5
RAAN
200.3253°
Arg perigee
313.9360°
Mean anomaly
46.1749°
Rev number
20,001

§ Raw data

NOAA 21 (JPSS-2)1 54234U 22150A   26263.11818459  .00000014  00000+0  27425-4 0  99922 54234  98.7105 200.3253 0000818 313.9360  46.1749 14.19549897200018

JSON: /api/v1/satellites/54234 · /tle

For live sub-satellite position, see the globe view (requires WebGL).

§ Visibility from observer

Set your observer location to see the next 7 days of passes ≥ 10°. The values pass through the URL so the page stays shareable.

No JS? Fill the form by hand. The geolocation button needs JavaScript.

§ Radio — SatNOGS DB

ModeDescriptionDownlinkUplink
BPSK S-band telemetry 2.248 GHz
FM TDRS input 2.067 GHz

2 transmitters · refreshed weekly from db.satnogs.org